#timestamp,LO_Frequency,Hit 
1499140815.6,286047025.0,N
1499140835.5,286047024.0,N
1499140855.3,286047024.9,N
1499140875.1,286047025.7,N
1499140895.9,286047028.4,N
1499140915.7,286047025.8,N
1499140935.5,286047023.9,N
1499140955.4,286047028.0,N
1499140975.2,286047027.9,N
1499140995.0,286047026.2,N
1499140995.9,286047026.2,N
1499141015.8,286047026.1,N
1499141035.6,286047026.5,N
1499141055.4,286047026.4,N
1499141075.3,286047028.3,N
1499141095.1,286047025.6,N
1499141096.0,286047025.6,N
1499141115.8,286047024.2,N
1499141135.6,286047025.7,N
1499141155.5,286047024.5,N
1499141175.3,286047022.4,N
1499141195.1,286047022.6,N
1499141215.9,286047026.8,N
1499141235.7,286047024.2,N
1499141255.5,286047025.9,N
1499141275.4,286047025.8,N
1499141295.2,286047024.9,N
1499141315.0,286047022.4,N
1499141315.9,286047022.4,N
1499141335.8,286047022.7,N
1499141355.6,286047022.3,N
1499141375.4,286047022.4,N
1499141395.3,286047022.4,N
1499141415.1,286047024.1,N
1499141416.0,286047024.1,N
1499141435.8,286047026.7,N
1499141455.6,286047025.1,N
1499141475.5,286047024.3,N
1499141495.3,286047026.5,N
1499141515.1,286047025.5,N
1499141535.9,286047026.7,N
1499141555.7,286047023.7,N
1499141575.5,286047023.8,N
1499141595.4,286047028.4,N
1499141615.2,286047027.2,N
1499141635.0,286047028.3,N
1499141635.9,286047028.3,N
1499141655.8,286047027.8,N
1499141675.6,286047026.3,N
1499141695.4,286047023.7,N
1499141715.3,286047025.8,N
1499141735.1,286047026.8,N
1499141736.0,286047026.8,N
1499141755.8,286047023.7,N
1499141775.7,286047022.1,N
1499141795.5,286047022.3,N
1499141815.3,286047024.4,N
1499141835.1,286047026.4,N
1499141855.9,286047024.7,N
1499141875.7,286047022.6,N
1499141895.5,286047022.7,N
1499141915.4,286047025.9,N
1499141935.2,286047029.8,N
1499141955.0,286047027.6,N
1499141955.9,286047027.6,N
1499141975.8,286047029.8,N
1499141995.6,286047027.1,N
1499142015.4,286047027.4,N
1499142035.3,286047028.2,N
1499142055.1,286047027.5,N
1499142056.0,286047027.5,N
1499142075.8,286047028.0,N
1499142095.7,286047028.2,N
1499142115.5,286047027.5,N
1499142135.3,286047028.0,N
1499142155.1,286047026.9,N
1499142175.9,286047027.3,N
1499142195.7,286047029.3,N
1499142215.5,286047031.6,N
1499142235.4,286047031.4,N
1499142255.2,286047031.2,N
1499142275.0,286047029.9,N
1499142275.9,286047029.9,N
1499142295.8,286047029.7,N
1499142315.6,286047029.5,N
1499142335.4,286047027.5,N
1499142355.3,286047029.8,N
1499142375.1,286047027.8,N
1499142376.0,286047027.8,N
1499142395.8,286047029.3,N
1499142415.7,286047029.9,N
1499142435.5,286047029.5,N
1499142455.3,286047028.9,N
1499142475.2,286047027.6,N
1499142495.9,286047027.5,N
1499142515.7,286047029.6,N
1499142535.6,286047027.3,N
1499142555.4,286047029.7,N
1499142575.2,286047027.2,N
1499142595.1,286047027.0,N
1499142596.0,286047027.0,N
1499142615.8,286047027.5,N
1499142635.6,286047027.5,N
1499142655.4,286047027.7,N
1499142675.3,286047027.9,N
1499142695.1,286047027.9,N
1499142715.8,286047025.5,N
1499142735.7,286047025.8,N
1499142755.5,286047025.5,N
1499142775.3,286047025.6,N
1499142795.2,286047025.1,N
1499142815.9,286047026.6,N
1499142835.7,286047025.5,N
1499142855.6,286047025.5,N
1499142875.4,286047026.0,N
1499142895.2,286047026.8,N
1499142915.1,286047024.1,N
1499142916.0,286047024.1,N
1499142935.8,286047024.3,N
1499142955.6,286047026.3,N
1499142975.5,286047026.1,N
1499142995.3,286047026.4,N
1499143015.1,286047026.6,N
1499143035.9,286047028.1,N
1499143055.7,286047028.2,N
1499143075.5,286047028.2,N
1499143095.3,286047027.0,N
1499143115.2,286047027.9,N
1499143135.0,286047027.7,N
1499143135.9,286047027.7,N
1499143155.7,286047028.4,N
1499143175.6,286047028.4,N
1499143195.4,286047026.9,N
1499143215.2,286047026.9,N
1499143235.1,286047027.5,N
1499143236.0,286047027.5,N
1499143255.8,286047028.4,N
1499143275.6,286047026.6,N
1499143295.5,286047024.4,N
1499143315.3,286047024.1,N
1499143335.1,286047027.6,N
1499143355.9,286047026.3,N
1499143375.7,286047026.8,N
1499143395.5,286047027.6,N
1499143415.4,286047027.6,N
1499143435.2,286047024.0,N
1499143455.0,286047025.0,N
1499143455.9,286047025.0,N
1499143475.7,286047025.2,N
1499143495.6,286047024.4,N
1499143515.4,286047024.1,N
1499143535.2,286047026.5,N
1499143555.1,286047028.3,N
1499143556.0,286047028.3,N
1499143575.8,286047028.2,N
1499143595.6,286047029.4,N
1499143615.5,286047028.0,N
1499143635.3,286047026.5,N
1499143655.1,286047024.8,N
1499143675.9,286047023.2,N
1499143695.7,286047022.4,N
1499143715.5,286047024.3,N
1499143735.4,286047028.4,N
1499143755.2,286047024.3,N
1499143775.0,286047026.2,N
1499143775.9,286047026.2,N
1499143795.8,286047023.8,N
1499143815.6,286047025.5,N
1499143835.4,286047028.2,N
1499143855.2,286047030.0,N
1499143875.1,286047027.1,N
1499143876.0,286047027.1,N
1499143895.8,286047027.6,N
1499143915.6,286047027.3,N
1499143935.5,286047029.9,N
1499143955.3,286047029.1,N
1499143975.1,286047028.5,N
1499143995.9,286047031.5,N
1499144015.7,286047030.2,N
1499144035.5,286047030.1,N
1499144055.4,286047032.2,N
1499144075.2,286047031.8,N
1499144095.0,286047032.7,N
1499144095.9,286047032.7,N
1499144115.8,286047032.1,N
1499144135.6,286047034.7,N
1499144155.4,286047034.1,N
1499144175.3,286047034.2,N
1499144195.1,286047030.4,N
1499144196.0,286047030.4,N
1499144215.8,286047028.5,N
1499144235.7,286047030.5,N
1499144255.5,286047032.8,N
1499144275.3,286047033.1,N
1499144295.2,286047033.2,N
1499144315.9,286047030.8,N
1499144335.7,286047030.1,N
1499144355.5,286047033.2,N
1499144375.4,286047032.9,N
1499144395.2,286047033.6,N
